GFSFLT2_700_spd_132.txt.gz
Wind_Speed
16 19 21 21 19 17 18 22 25 23 23 22 21 21 20 19 18 18 18 18 17 18 17 16 16 13 11 11 11 11 10 8
21 23 25 26 25 18 17 20 26 27 26 24 24 24 23 22 21 19 18 18 18 19 18 18 18 16 13 12 12 13 13 11
26 28 28 28 26 25 25 21 24 29 29 28 27 27 27 26 24 22 20 19 18 19 19 19 19 18 16 15 15 15 15 13
29 31 32 30 29 27 26 25 26 29 32 31 30 30 29 29 27 26 24 22 21 20 21 21 21 21 20 18 16 17 16 15
31 29 26 26 25 24 22 22 26 28 32 34 33 32 32 31 30 28 27 25 25 23 23 22 22 22 22 21 19 19 18 18
24 25 25 23 20 23 24 22 22 23 27 35 38 37 35 33 32 31 31 29 29 28 26 25 25 24 24 25 23 21 21 19
17 17 19 21 22 23 24 24 22 23 24 27 35 39 38 38 36 35 34 33 33 32 30 29 28 26 25 26 27 24 23 22
19 21 23 24 25 24 25 25 25 24 25 27 28 31 38 40 39 38 39 37 37 37 35 33 31 30 28 28 28 28 25 24
24 26 29 30 30 31 30 28 29 29 29 28 29 30 35 36 40 43 44 41 44 45 40 37 35 34 32 31 31 29 29 26
30 31 32 36 37 35 35 36 34 34 33 32 31 31 33 35 41 51 44 45 47 49 45 40 39 38 37 35 34 32 31 30
34 36 37 40 42 40 40 40 38 39 39 40 38 36 34 36 37 40 49 59 55 30 40 48 41 41 42 40 38 37 34 32
41 41 43 44 44 46 45 43 42 43 45 46 46 44 43 42 42 42 43 44 49 52 36 54 52 44 44 44 41 40 39 37
40 41 43 44 45 45 48 49 46 47 48 49 50 50 50 48 47 47 48 46 46 42 45 51 67 55 45 45 44 42 44 42
40 41 42 43 45 45 47 49 52 52 52 53 52 52 52 52 51 49 50 51 50 45 42 42 52 65 54 49 45 46 47 45
39 39 39 41 43 44 45 47 49 50 50 51 53 53 54 56 58 57 54 55 54 47 43 45 49 53 64 57 47 51 44 45
38 40 42 44 46 48 50 52 53 53 56 57 58 61 61 60 62 63 62 60 57 51 46 43 44 51 49 56 56 43 42 45
45 46 45 46 49 51 54 55 57 60 62 62 62 62 62 61 63 62 60 57 56 53 51 47 48 51 51 55 66 50 43 50
44 48 49 51 53 54 53 54 55 56 57 57 58 57 60 58 56 58 56 53 53 53 53 49 49 48 47 41 62 57 64 42
46 46 47 48 48 48 49 51 54 55 56 56 54 52 51 50 50 52 51 48 49 52 54 53 48 48 51 50 43 64 55 52
43 40 38 38 38 37 40 43 46 47 49 48 46 45 42 40 41 44 44 41 45 49 52 54 49 47 48 50 42 45 59 36

GFSFLT2_700_spd_138.txt.gz
Wind_Speed
16 16 16 16 18 19 18 17 17 16 21 24 25 25 25 23 22 21 21 17 15 14 13 12 10 9 10 11 12 13 13 13
19 19 21 21 22 22 21 19 18 19 20 23 25 28 27 27 26 24 23 22 19 17 17 16 14 13 13 14 14 14 15 16
24 24 24 25 26 24 21 18 16 18 21 23 25 26 28 30 29 27 26 25 22 21 20 18 19 18 16 16 17 16 17 17
28 27 26 26 23 22 21 19 17 17 20 22 26 27 29 28 30 31 29 28 26 25 24 24 23 22 20 19 19 18 18 19
25 23 21 19 19 18 17 18 17 17 18 21 24 28 29 31 32 32 32 31 29 29 28 27 26 24 24 22 21 21 21 21
19 18 17 14 12 11 13 15 16 15 16 20 22 24 27 31 32 33 32 33 33 33 32 30 29 27 27 25 25 24 24 24
17 17 16 16 16 16 16 17 17 18 19 19 20 24 25 26 33 32 33 36 37 36 36 35 33 32 30 29 27 27 27 26
19 19 20 21 22 24 24 25 25 26 25 24 24 24 24 27 29 29 38 37 39 43 39 38 37 34 34 33 30 30 31 30
23 24 26 27 28 30 31 32 32 33 33 32 31 31 30 29 29 31 32 33 37 41 37 47 42 39 39 43 37 34 34 33
26 28 29 31 33 35 36 37 39 39 40 40 39 39 38 35 35 34 34 33 32 33 45 46 50 43 41 38 43 39 36 36
29 31 32 33 34 35 37 39 42 44 45 46 48 47 44 43 42 40 39 39 38 35 34 31 28 31 47 44 48 36 39 37
35 37 38 38 39 40 41 43 45 47 49 50 52 52 53 52 50 48 45 44 44 42 39 38 34 29 31 32 32 35 44 46
31 31 33 35 37 39 40 40 41 42 45 49 52 54 56 55 55 54 52 50 48 48 46 44 39 33 35 32 30 31 35 50
35 37 38 41 44 45 47 47 48 48 48 48 48 49 51 55 60 58 52 52 51 50 49 47 43 37 36 35 34 31 33 46
38 39 40 42 43 45 45 46 47 48 49 51 53 54 53 54 56 56 58 57 54 52 51 48 46 40 39 38 40 41 32 36
35 38 41 45 47 48 49 49 49 49 50 50 52 52 53 54 58 60 61 61 60 57 55 53 51 46 45 43 45 44 38 38
39 42 42 44 45 46 45 46 47 48 49 49 49 51 53 55 58 61 60 60 61 62 62 59 56 53 49 49 49 50 46 45
35 37 41 42 41 43 43 44 44 43 43 45 45 44 46 49 52 56 60 58 59 59 60 61 61 59 53 51 52 53 49 49
35 39 37 36 36 41 42 41 39 39 38 37 37 38 39 41 45 48 51 55 57 57 57 57 56 57 54 52 53 54 54 46
36 34 31 30 29 34 34 30 29 29 26 23 23 22 21 24 30 36 41 45 47 51 54 53 53 54 51 50 52 55 55 55

GFSFLT2_700_spd_141.txt.gz
Wind_Speed
14 15 15 18 19 22 23 24 22 20 19 19 20 23 25 24 23 23 22 20 19 17 17 15 14 13 14 14 14 15 15 14
17 19 20 23 25 26 26 26 23 20 20 20 21 23 24 26 27 25 25 24 22 21 20 19 17 17 16 17 17 17 16 17
23 24 26 28 29 29 28 25 23 20 21 21 21 22 23 27 28 28 27 27 27 24 23 24 23 21 20 19 20 19 19 19
27 29 29 28 27 25 24 23 22 20 20 21 22 22 23 24 26 27 25 29 30 29 28 27 26 25 24 22 22 22 22 20
24 23 22 22 21 21 19 18 17 17 17 19 21 22 25 26 26 29 29 29 30 32 31 30 30 27 26 29 24 25 25 24
22 22 21 20 19 18 16 16 17 17 18 17 18 20 23 23 25 30 28 30 29 31 33 33 33 34 33 24 29 26 26 22
21 19 19 20 20 20 21 22 22 22 22 22 22 22 22 24 26 27 28 40 36 33 34 33 34 34 37 40 38 33 29 29
21 22 22 23 24 25 27 28 29 30 30 31 31 29 28 28 27 27 29 33 33 41 44 29 37 38 37 37 36 37 31 32
24 25 27 29 31 32 33 35 36 37 38 38 39 37 37 36 33 32 34 36 34 34 37 40 47 40 39 44 42 40 36 39
27 29 31 33 35 38 40 41 42 44 45 47 48 46 45 43 42 40 40 38 39 39 37 35 37 41 47 39 44 51 49 26
29 31 33 35 37 39 42 44 45 47 48 50 52 51 52 52 50 48 47 44 42 43 43 41 37 36 35 32 32 47 60 49
29 31 32 32 34 35 37 39 40 42 44 48 51 54 56 57 57 55 53 51 49 47 48 46 44 40 39 39 32 31 30 32
31 33 36 38 41 43 44 45 45 46 47 48 50 51 52 53 55 58 59 58 53 50 49 49 49 44 44 42 36 36 32 31
33 36 38 39 41 43 45 46 47 47 48 50 50 51 52 54 56 56 56 57 58 54 52 51 50 48 47 44 41 39 39 33
35 37 39 42 44 46 46 46 46 47 48 49 50 53 54 54 55 56 58 59 58 58 56 52 51 48 48 47 41 41 37 41
36 40 42 43 44 46 48 50 49 48 47 47 48 49 51 53 54 56 58 58 60 60 60 60 57 53 48 49 47 42 33 28
37 37 40 40 43 45 47 48 47 47 47 48 47 46 46 49 52 55 57 60 60 61 60 60 60 60 54 51 50 47 46 45
35 37 38 41 41 41 43 45 46 44 42 41 40 40 39 41 45 47 50 54 55 57 59 59 60 59 57 56 54 53 50 51
36 37 38 37 35 34 34 38 37 33 31 30 27 25 26 28 32 37 41 45 46 46 50 54 55 56 55 55 56 57 54 54
37 34 35 30 23 24 28 28 26 23 22 20 17 17 19 19 20 21 22 24 29 34 40 44 48 52 53 52 53 54 56 55

GFSFLT2_700_spd_144.txt.gz
Wind_Speed
12 13 14 16 18 20 23 25 27 27 25 23 21 21 21 20 21 22 22 22 20 18 18 18 16 15 15 15 15 16 16 16
16 18 20 22 23 26 28 29 29 28 26 23 24 23 21 21 23 23 23 24 24 24 21 22 22 20 18 18 18 19 18 19
22 23 25 27 28 30 30 29 27 25 24 22 22 23 23 22 23 23 23 27 26 26 25 29 26 25 22 20 21 20 21 21
25 26 27 27 26 26 25 25 24 23 21 21 21 22 23 24 23 22 23 25 26 33 31 32 33 30 27 25 24 22 23 24
25 24 24 23 23 23 23 22 20 19 18 17 17 19 22 23 24 26 26 22 25 27 31 34 34 32 32 31 27 25 26 26
22 21 21 21 21 21 22 22 21 21 21 21 20 20 21 22 24 25 26 26 29 27 30 34 34 35 37 36 34 29 27 29
21 21 21 22 24 24 25 25 25 27 28 28 28 28 28 26 26 27 28 29 30 32 40 38 34 38 43 35 35 36 34 40
22 23 24 26 27 28 29 31 31 34 36 36 37 38 36 35 35 33 32 33 36 33 35 36 34 42 51 34 40 40 43 44
26 28 29 31 32 34 35 37 39 41 43 44 46 47 44 45 43 41 40 40 38 38 37 41 36 39 45 34 44 44 45 41
30 32 33 34 36 37 39 41 42 45 47 48 50 52 50 51 50 48 46 46 45 42 40 42 42 39 39 35 37 37 38 40
29 31 32 34 35 37 38 40 41 43 46 47 51 53 54 55 55 55 52 51 50 49 46 46 45 43 41 40 37 38 36 38
28 30 32 34 36 38 40 41 42 44 46 48 51 54 56 56 57 55 55 55 54 53 53 49 50 47 46 44 43 38 37 36
31 33 34 36 38 41 42 43 44 45 45 48 50 51 54 56 58 59 58 57 57 56 54 52 50 48 48 48 47 43 41 36
32 33 36 40 41 43 44 45 44 44 45 46 48 51 52 52 54 57 59 58 56 57 58 57 54 46 48 48 49 46 45 38
32 33 40 43 42 43 44 45 47 48 48 49 49 50 51 53 53 53 55 57 58 57 56 56 57 54 47 47 48 48 43 40
32 37 42 43 45 46 47 50 51 52 52 51 50 49 49 50 52 54 55 56 56 57 56 57 56 56 53 47 47 48 43 37
34 39 41 43 46 44 46 47 48 49 50 49 46 44 42 42 45 47 48 49 51 52 53 55 54 55 53 51 49 48 46 46
36 36 40 43 41 42 41 41 38 39 40 41 40 36 33 31 31 33 35 38 42 44 46 49 51 52 54 50 50 47 48 50
32 34 39 39 39 36 33 27 32 39 39 39 35 30 25 21 21 23 24 26 26 28 32 39 43 46 48 48 48 49 49 49
30 35 39 36 35 28 23 23 31 38 40 39 30 23 20 17 16 17 20 20 20 20 19 21 31 38 40 41 42 44 48 48